TimeEET,TemperatureF,Dew PointF,Humidity,Sea Level PressureIn,VisibilityMPH,Wind Direction,Wind SpeedMPH,Gust SpeedMPH,PrecipitationIn,Events,Conditions,WindDirDegrees,DateUTC
12:00 AM,78.8,59.0,51,29.77,-9999.0,West,2.3,-,N/A,,Clear,270,2013-08-15 22:00:00
1:00 AM,77.0,55.4,47,29.77,-9999.0,WSW,2.3,-,N/A,,Clear,240,2013-08-15 23:00:00
2:00 AM,76,51,31,29.76,6,WNW,5.8,,,,,290,2013-08-16 00:00:00
2:00 AM,75.2,51.8,44,29.77,-9999.0,WNW,5.8,-,N/A,,Clear,290,2013-08-16 00:00:00
3:00 AM,75.2,51.8,44,29.77,-9999.0,WNW,8.1,-,N/A,,Clear,300,2013-08-16 01:00:00
4:00 AM,73.4,51.8,47,29.77,-9999.0,NW,3.5,-,N/A,,Clear,310,2013-08-16 02:00:00
5:00 AM,73.4,60.8,65,29.77,-9999.0,WNW,1.2,-,N/A,,Clear,300,2013-08-16 03:00:00
6:00 AM,73.4,60.8,65,29.77,-9999.0,West,3.5,-,N/A,,Clear,270,2013-08-16 04:00:00
7:00 AM,77.0,64.4,65,29.80,-9999.0,West,5.8,-,N/A,,Clear,270,2013-08-16 05:00:00
8:00 AM,80,66,54,29.79,6,West,5.8,,,,,280,2013-08-16 06:00:00
8:00 AM,78.8,66.2,65,29.80,-9999.0,West,5.8,-,N/A,,Clear,280,2013-08-16 06:00:00
9:00 AM,82.4,66.2,58,29.80,-9999.0,WNW,6.9,-,N/A,,Clear,290,2013-08-16 07:00:00
10:00 AM,86.0,66.2,51,29.83,-9999.0,WNW,9.2,-,N/A,,Clear,300,2013-08-16 08:00:00
11:00 AM,89.6,62.6,40,29.80,-9999.0,WNW,11.5,-,N/A,,Clear,300,2013-08-16 09:00:00
12:00 PM,91.4,62.6,38,29.80,-9999.0,NW,11.5,-,N/A,,Clear,320,2013-08-16 10:00:00
1:00 PM,93.2,62.6,36,29.80,-9999.0,NW,11.5,-,N/A,,Clear,310,2013-08-16 11:00:00
2:00 PM,96,50,13,29.71,6,NW,13.8,,,,,320,2013-08-16 12:00:00
2:00 PM,95.0,50.0,22,29.77,-9999.0,NW,13.8,-,N/A,,Clear,320,2013-08-16 12:00:00
3:00 PM,96.8,50.0,20,29.77,-9999.0,NNW,11.5,-,N/A,,Clear,330,2013-08-16 13:00:00
4:00 PM,96.8,50.0,20,29.77,-9999.0,NW,11.5,-,N/A,,Clear,320,2013-08-16 14:00:00
5:00 PM,96.8,55.4,25,29.74,-9999.0,NNW,6.9,-,N/A,,Clear,330,2013-08-16 15:00:00
6:00 PM,95.0,55.4,26,29.74,-9999.0,WNW,9.2,-,N/A,,Clear,300,2013-08-16 16:00:00
7:00 PM,93.2,55.4,28,29.74,-9999.0,WNW,6.9,-,N/A,,Clear,300,2013-08-16 17:00:00
8:00 PM,89.6,59.0,36,29.74,-9999.0,WNW,4.6,-,N/A,,Clear,300,2013-08-16 18:00:00
9:00 PM,89.6,59.0,36,29.77,-9999.0,NW,5.8,-,N/A,,Clear,310,2013-08-16 19:00:00
10:00 PM,86.0,59.0,40,29.77,-9999.0,NW,5.8,-,N/A,,Clear,310,2013-08-16 20:00:00
11:00 PM,86.0,59.0,40,29.77,-9999.0,NW,5.8,-,N/A,,Clear,310,2013-08-16 21:00:00